Lid_Strength_Index
13 14 15 12 11 9 11 11 12 10 8 10 11 11 9 8 7 7 7 6 6 5 4 3 2 2 2 2 1 1 1 1 1 1 1 1 1 1 1 1 0 0 0 -0
13 15 12 11 10 10 10 11 11 10 8 10 11 11 9 8 8 7 7 7 6 5 5 4 3 2 2 2 2 2 2 1 1 1 1 1 1 1 1 1 0 -0 -0 -0
15 13 11 10 11 11 13 13 12 11 10 10 11 13 11 9 7 7 6 6 5 5 5 4 4 3 2 3 2 2 2 1 1 1 1 1 1 1 2 1 1 1 0 -0
14 11 11 11 11 10 13 11 11 10 11 15 10 17 13 10 9 8 7 6 6 5 4 4 4 4 3 2 2 1 2 2 1 1 1 2 2 3 2 2 1 2 1 1
13 13 12 12 11 9 11 9 10 10 12 13 14 15 13 10 12 9 8 6 6 5 5 4 4 3 2 2 2 1 1 1 1 1 1 2 3 3 4 2 2 3 3 1
11 10 11 11 10 9 9 12 13 13 13 17 14 14 14 13 11 9 7 6 6 5 4 4 3 3 3 2 2 2 2 2 1 1 1 2 3 4 4 3 3 5 4 1
13 12 11 10 12 11 12 14 17 17 17 18 13 15 12 10 8 8 7 7 6 5 5 4 4 4 3 3 2 2 2 2 1 1 1 2 3 5 4 2 3 5 2 1
15 16 12 11 11 12 13 14 16 19 18 16 13 16 13 7 6 6 6 6 5 5 5 5 4 4 3 3 2 2 2 2 2 1 1 2 4 5 4 2 4 3 1 1
15 14 11 10 10 10 14 15 13 17 18 17 15 13 10 9 9 7 7 6 6 5 5 5 4 3 3 3 3 2 2 2 2 1 2 4 5 6 4 2 3 2 1 1
12 15 11 10 10 11 12 12 14 17 19 19 16 15 13 11 9 9 8 7 6 5 5 4 4 4 3 3 2 2 2 2 2 1 2 4 5 6 2 2 2 2 2 1
12 14 13 11 11 11 13 14 15 15 17 18 18 16 11 10 8 8 7 6 6 5 5 5 4 3 3 2 2 2 2 2 2 2 3 4 6 5 3 2 1 2 2 1
12 13 13 13 10 9 10 12 13 15 18 17 17 15 9 8 8 7 7 6 5 5 5 4 4 4 3 3 3 3 2 2 2 2 3 4 5 5 3 2 1 1 2 2
12 15 15 14 13 11 12 12 14 15 16 17 16 14 9 9 8 7 7 6 6 5 5 5 4 4 4 3 3 3 2 2 2 2 4 5 5 5 3 1 1 2 2 1
8 16 14 14 13 12 12 11 12 13 16 16 15 13 10 8 8 7 7 6 6 5 5 5 5 4 4 3 3 3 3 2 2 2 4 5 5 5 3 2 1 2 1 1
12 14 15 11 11 10 10 11 12 13 13 14 12 12 9 8 8 7 6 6 6 6 6 5 5 4 4 4 3 3 2 2 2 3 3 4 4 4 4 2 1 1 1 1
13 14 14 12 11 10 11 10 10 11 11 12 12 12 9 8 7 7 7 6 6 6 6 6 5 4 4 4 3 3 3 2 2 2 3 2 3 4 3 2 2 1 2 2
14 15 16 14 13 13 14 11 11 11 10 10 12 9 9 8 8 7 7 7 6 6 6 6 5 4 4 3 3 3 3 2 2 2 2 3 4 4 3 3 1 2 2 1
11 15 16 15 15 18 12 9 9 10 9 8 9 9 8 8 6 6 6 7 7 6 5 6 5 4 3 3 3 2 2 2 3 3 2 3 4 4 3 3 2 2 2 1
10 14 16 17 17 14 11 10 10 10 10 7 9 7 7 7 7 7 6 6 6 5 4 4 3 4 3 3 3 3 3 3 3 3 3 3 4 4 3 3 2 1 2 1
9 11 13 16 17 16 12 9 7 8 13 7 7 8 8 7 10 9 6 5 6 5 5 5 5 4 3 3 2 3 3 3 3 3 3 3 3 3 3 2 2 1 1 1
14 14 16 15 16 14 10 8 7 13 12 8 7 7 7 8 8 6 5 5 5 5 4 4 3 3 3 2 2 3 3 3 3 3 3 3 3 3 3 3 2 2 2 3
13 15 16 15 16 17 8 9 11 9 7 7 7 7 7 7 6 5 5 5 5 4 4 3 4 3 3 2 3 4 4 3 3 4 4 4 3 2 3 3 3 2 2 2
14 12 14 13 14 9 8 9 7 7 7 7 6 6 6 6 6 5 5 5 5 4 4 3 4 4 4 3 3 5 4 4 5 6 5 5 4 4 3 3 3 3 2 2
10 9 12 12 9 9 8 7 6 6 7 6 6 6 7 7 6 5 5 5 5 4 4 3 4 4 5 5 4 5 5 4 5 5 5 5 5 4 2 2 3 3 2 3
10 9 11 11 9 8 7 6 6 6 6 7 7 7 8 7 7 6 5 5 4 4 4 4 5 5 4 4 5 5 5 4 4 4 4 4 3 3 4 8 6 2 4 3
9 11 12 12 8 9 8 6 6 7 7 7 7 8 8 8 8 6 7 5 4 4 4 5 5 5 5 5 5 4 3 3 3 3 4 4 4 3 5 6 7 10 11 12